Simultaneous Nadir Overpasses (SNOs) Predictions

Prediction of SNOs between LANDSAT-8 and NOAA-19 Satellite Orbit:

Table of predicted SNOs for the next 14.0 days since TLE Epoch: 8/28/2016
Index Date (LANDSAT-8) Time (LANDSAT-8) Lat,Lon (LANDSAT-8) SZA (LANDSAT-8 ) Date (NOAA-19) Time (NOAA-19) Lat,Lon (NOAA-19) SZA (NOAA-19 ) Distance(km) Time Diff (sec)
1 08/28/2016 05:36:41 74.94, 101.22 65.37 08/28/2016 05:37:39 74.94, 101.26 65.39 1.23 58
2 08/30/2016 10:20:58 75.00, 30.32 66.23 08/30/2016 10:20:40 75.00, 30.39 66.23 2.16 18
3 08/30/2016 11:10:29 -74.83,-162.49 113.95 08/30/2016 11:11:41 -74.80,-161.79 113.95 20.65 72
4 09/01/2016 15:54:44 -75.00, 126.87 112.97 09/01/2016 15:54:45 -74.99, 126.95 112.97 2.63 1
5 09/03/2016 20:39:01 -75.06, 55.96 112.09 09/03/2016 20:37:47 -75.09, 55.95 112.07 3.19 74
6 09/03/2016 21:28:27 75.03,-136.47 67.90 09/03/2016 21:28:42 75.03,-136.60 67.89 3.54 15
7 09/06/2016 02:12:44 75.09, 152.60 68.78 09/06/2016 02:11:43 75.09, 152.51 68.77 2.69 61
8 09/06/2016 03:02:13 -75.02, -39.93 111.28 09/06/2016 03:02:47 -75.01, -40.01 111.29 2.83 34
9 09/08/2016 07:46:30 -75.08,-110.86 110.39 09/08/2016 07:45:48 -75.07,-110.91 110.41 1.61 42
10 09/08/2016 08:35:57 75.00, 56.57 69.53 09/08/2016 08:36:43 75.02, 56.52 69.56 2.90 46
11 09/10/2016 13:20:14 75.05, -14.37 70.43 09/10/2016 13:19:43 75.04, -14.24 70.42 3.81 31




NCC Satellite Simultaneous Nadir Overpasses (SNOs) Prediction Service
